BEIJING 1 1 28890U 05043A 26161.65563118 .00000127 00000+0 34069-4 0 9995 2 28890 98.2900 294.8326 0013575 305.8229 54.1710 14.63528066 99693 HUANJING 1A (HJ-1A) 1 33320U 08041A 26161.62581267 .00000396 00000+0 53665-4 0 9993 2 33320 97.6682 147.7180 0019358 155.4370 204.7771 14.83969301957430 HUANJING 1B (HJ-1B) 1 33321U 08041B 26161.59191681 .00000914 00000+0 11677-3 0 9999 2 33321 97.6517 150.8772 0035445 202.9765 156.9866 14.83305460957434 YAOGAN-4 1 33446U 08061A 26161.55570463 .00000834 00000+0 10861-3 0 9999 2 33446 97.9308 95.1150 0015779 92.0346 268.2675 14.83187314944689 DEIMOS-1 1 35681U 09041A 26161.67496623 .00000662 00000+0 10493-3 0 9999 2 35681 97.7398 319.1856 0001206 137.7487 222.3816 14.75231394905925 UK-DMC 2 1 35683U 09041C 26161.65012726 .00000294 00000+0 49919-4 0 9994 2 35683 97.8825 296.7769 0001285 75.5971 284.5382 14.76026394905606 DMC3-FM1 1 40715U 15032A 26161.60523801 .00000579 00000+0 72542-4 0 9993 2 40715 97.6476 27.0383 0007206 76.7397 283.4622 14.85732509588939 DMC3-FM2 1 40716U 15032B 26161.62731644 -.00000056 00000+0 -52745-6 0 9999 2 40716 97.6528 28.6284 0007634 80.7291 279.4787 14.85734581588937 DMC3-FM3 1 40717U 15032C 26161.65059751 .00000467 00000+0 59667-4 0 9997 2 40717 97.6579 30.3995 0006827 81.2690 278.9299 14.85725242588942